Location: Eaton Estates
(41.3089°N, 82.0057°W)
Time: 23:26:13
(UTC+00:00)

METEOR M2 - Visible Passes

Search period start: 22 March 2023 00:00
Search period end: 01 April 2023 00:00
Orbit: 819 x 826 km, 98.4° (Epoch: 22 March)

Date Brightness Start Highest point End Pass type
(mag) Time Alt. Az. Time Alt. Az. Time Alt. Az.
22 Mar ? 00:29:50 10° SW 00:32:48 15° W 00:35:47 10° NW visible
23 Mar ? 00:08:26 10° SW 00:12:36 23° W 00:16:48 10° NW visible
23 Mar ? 10:45:34 10° NE 10:49:21 19° E 10:53:07 10° SE visible
24 Mar ? 10:27:00 10° ENE 10:29:07 12° E 10:31:14 10° ESE visible
27 Mar ? 00:30:10 10° WSW 00:33:03 15° W 00:35:58 10° WNW visible
28 Mar ? 10:45:46 10° NE 10:49:36 20° E 10:53:24 10° SE visible
29 Mar ? 10:27:08 10° ENE 10:29:22 12° E 10:31:35 10° ESE visible
